STARLINK-3831, 52332

Orbit data source: Space-Track

STARLINK-3831, 52332 is a payload satellite owned by SpaceX/Seattle (US) in LEO that was launched on Fri, 29 Apr 2022 UTC via an FALCON 9 launch vehicle from the Air Force Eastern Test Range (AFETR). Payload-class satellites include a variety of spacecraft equipped with specific instruments for various scientific and technological missions. These include communications satellites like Starlink; space stations such as the ISS; scientific satellites like the Hubble; Earth observation satellites from companies like Planet Labs, Umbra, and HawkEye 360; GPS; miniature CubeSats for education and research; and military/defense satellites.

Loading next visibility...
Identifier
52332, 2022-045B
Orbit
LEO
Last TLE update
15 hours ago
Origin
Manufacturer
SpaceX/Seattle
Mission
Operational Commercial Communications
Bus & Motor
STARLINK, Unknown motor
Mass
297 kg wet, ~275 kg dry
Launch date (UTC)
2022-04-29 (3 years ago)
Launch vehicle
FALCON 9
Launch site
Air Force Eastern Test Range (AFETR)
Object type
Payload
Rocket body
Debris
Shape & HBR
Box + 1 Pan, 9 m
Radar Cross Section
11.087 m², Large (>1 m²)

Expand to show TLE details & history

TLE from 15 hours ago
0 STARLINK-3831
1 52332U 22045B   25169.69283968 -.00000311  00000-0 -14502-5 0  9996
2 52332  53.2182 314.2569 0001259  90.3987 269.7149 15.08839218175782
Epoch: 2025-06-18T16:37Z
TLE epoch observation values (Epoch: 2025-06-18T16:37:41.348Z)
Latitude
-0.00005°
Longitude
157.66336°
Altitude
540.648 km
Speed
7.593 km/s
True Right ascension
20h 57m 01s
True Declination
0° 00' 00"
Sunlit
Object was in full shadow at epoch
Visualization orbit readout
Latitude
47.45416°
Longitude
-150.96397°
Altitude
544.214 km
Speed
7.596 km/s
Apparent Right ascension
03h 18m 05s
Apparent Declination
8° 07' 47"
Sunlit
Object is in daylight
Visualization observer readout
Local Sidereal Time
18:04:23
Azimuth
48.379° ENE
Elevation
-28.508°
Doppler factor
1
Orbital elements
Apogee altitude
540.862 km
Perigee altitude
539.12 km
Semi-major axis
6,918.128 km
Eccentricity
0.00013
Inclination
53.2182°
RAAN
314.2569°
Arg. of periapsis
90.3987°
True anomaly
Unknown
Mean anomaly
269.7149°
Eccentric anomaly
Unknown
Mean motion
3.7719 °/min
Orbital period
95.44 mins
BSTAR
-0.0000014502
Loading maneuver chart data...
Loading SW <> Apogee altitude chart data...
Loading historical data...
Loading historical data...
Loading historical data...
Loading historical data...
Loading historical data...
Loading historical data...
Loading historical data...

STARLINK-3831 Visibility forecast

Observer location: undefined°, undefined°

Span
Click to sort rows by Start time (UTC) header in descending order
Start Az.
Max El. time (UTC)
Max El. Az.
Max El.
End time (UTC)
End Az.
7 mins2025-06-19 11:51:46.567Z207.328° SW2025-06-19 11:54:46.567Z158.684° S35.582°2025-06-19 11:58:46.567Z61.379° ENE
5 mins2025-06-19 13:32:46.567Z287.488° WNW2025-06-19 13:34:46.567Z333.172° NNW25.596°2025-06-19 13:37:46.567Z29.16° NE
6 mins2025-06-19 18:33:46.567Z329.651° NNW2025-06-19 18:35:46.567Z21.233° NNE36.252°2025-06-19 18:39:46.567Z109.529° ESE
4 mins2025-06-19 20:13:46.567Z260.643° W2025-06-19 20:14:46.567Z239.694° WSW21.474°2025-06-19 20:17:46.567Z183.306° SSW
|